Time,TemperatureF,DewpointF,PressureIn,WindDirection,WindDirectionDegrees,WindSpeedMPH,WindSpeedGustMPH,Humidity,HourlyPrecipIn,Conditions,Clouds,dailyrainin,SoftwareType,DateUTC
2013-07-02 00:11:00,62.0,59.0,29.86,NNW,330,0.0,-999.0,91,-99.99,,,-99.99,,2013-07-02 04:11:00,
2013-07-02 00:22:00,62.0,59.0,29.87,SSE,155,0.0,-999.0,91,-99.99,,,-99.99,,2013-07-02 04:22:00,
2013-07-02 00:32:00,62.0,59.0,29.87,SSE,155,0.0,-999.0,91,-99.99,,,-99.99,,2013-07-02 04:32:00,
2013-07-02 00:42:00,62.0,59.0,29.87,SSE,155,0.0,-999.0,91,-99.99,,,-99.99,,2013-07-02 04:42:00,
2013-07-02 00:53:00,63.0,60.0,29.88,NE,55,0.0,-999.0,90,-99.99,,,-99.99,,2013-07-02 04:53:00,
2013-07-02 01:02:00,63.0,60.0,29.88,NE,55,0.0,-999.0,90,-99.99,,,-99.99,,2013-07-02 05:02:00,
2013-07-02 01:22:00,63.0,60.0,29.88,ENE,65,0.0,-999.0,89,-99.99,,,-99.99,,2013-07-02 05:22:00,
2013-07-02 01:32:00,63.0,60.0,29.87,ENE,69,0.0,-999.0,89,-99.99,,,-99.99,,2013-07-02 05:32:00,
2013-07-02 01:43:00,63.0,60.0,29.86,NNW,328,0.0,-999.0,89,-99.99,,,-99.99,,2013-07-02 05:43:00,
2013-07-02 01:53:00,63.0,60.0,29.86,NNW,328,0.0,-999.0,89,-99.99,,,-99.99,,2013-07-02 05:53:00,
2013-07-02 02:01:00,63.0,60.0,29.86,NNW,330,0.0,-999.0,89,-99.99,,,-99.99,,2013-07-02 06:01:00,
2013-07-02 02:23:00,63.0,60.0,29.86,NE,37,0.0,-999.0,89,-99.99,,,-99.99,,2013-07-02 06:23:00,
2013-07-02 02:34:00,63.0,60.0,29.85,ENE,65,0.0,-999.0,89,-99.99,,,-99.99,,2013-07-02 06:34:00,
2013-07-02 02:53:00,63.0,60.0,29.84,ENE,65,0.0,-999.0,89,-99.99,,,-99.99,,2013-07-02 06:53:00,
2013-07-02 03:01:00,63.0,60.0,29.83,ENE,65,0.0,-999.0,90,-99.99,,,-99.99,,2013-07-02 07:01:00,
2013-07-02 03:22:00,63.0,60.0,29.83,ENE,65,0.0,-999.0,90,-99.99,,,-99.99,,2013-07-02 07:22:00,
2013-07-02 03:44:00,63.0,60.0,29.81,ENE,65,0.0,-999.0,91,-99.99,,,-99.99,,2013-07-02 07:44:00,
2013-07-02 03:53:00,63.0,60.0,29.81,ENE,65,0.0,-999.0,91,-99.99,,,-99.99,,2013-07-02 07:53:00,
2013-07-02 04:02:00,62.0,60.0,29.82,ENE,65,0.0,-999.0,92,-99.99,,,-99.99,,2013-07-02 08:02:00,
2013-07-02 04:12:00,62.0,60.0,29.82,ENE,65,0.0,-999.0,92,-99.99,,,-99.99,,2013-07-02 08:12:00,
2013-07-02 04:22:00,62.0,60.0,29.83,ENE,65,0.0,-999.0,92,-99.99,,,-99.99,,2013-07-02 08:22:00,
2013-07-02 04:33:00,62.0,60.0,29.83,ENE,65,0.0,-999.0,92,-99.99,,,-99.99,,2013-07-02 08:33:00,
2013-07-02 04:44:00,62.0,60.0,29.84,ENE,65,0.0,-999.0,92,-99.99,,,-99.99,,2013-07-02 08:44:00,
2013-07-02 04:53:00,62.0,60.0,29.84,ENE,65,0.0,-999.0,92,-99.99,,,-99.99,,2013-07-02 08:53:00,
2013-07-02 05:23:00,62.0,60.0,29.84,ENE,65,0.0,-999.0,92,-99.99,,,-99.99,,2013-07-02 09:23:00,
2013-07-02 05:52:00,62.0,60.0,29.85,ENE,65,0.0,-999.0,92,-99.99,,,-99.99,,2013-07-02 09:52:00,
2013-07-02 06:01:00,63.0,61.0,29.85,ENE,65,0.0,-999.0,92,-99.99,,,-99.99,,2013-07-02 10:01:00,
2013-07-02 06:11:00,63.0,61.0,29.85,ENE,65,0.0,-999.0,92,-99.99,,,-99.99,,2013-07-02 10:11:00,
2013-07-02 06:44:00,63.0,61.0,29.86,ENE,65,0.0,-999.0,92,-99.99,,,-99.99,,2013-07-02 10:44:00,
2013-07-02 06:52:00,63.0,61.0,29.87,ENE,65,0.0,-999.0,93,-99.99,,,-99.99,,2013-07-02 10:52:00,
2013-07-02 07:01:00,63.0,61.0,29.87,ENE,65,0.0,-999.0,93,-99.99,,,-99.99,,2013-07-02 11:01:00,
2013-07-02 07:11:00,63.0,61.0,29.87,ENE,65,0.0,-999.0,93,-99.99,,,-99.99,,2013-07-02 11:11:00,
2013-07-02 07:22:00,63.0,61.0,29.87,ENE,65,0.0,-999.0,93,-99.99,,,-99.99,,2013-07-02 11:22:00,
2013-07-02 07:33:00,63.0,61.0,29.87,ENE,65,0.0,-999.0,93,-99.99,,,-99.99,,2013-07-02 11:33:00,
2013-07-02 07:42:00,63.0,61.0,29.88,ENE,65,0.0,-999.0,93,-99.99,,,-99.99,,2013-07-02 11:42:00,
2013-07-02 07:52:00,63.0,61.0,29.88,ENE,65,0.0,-999.0,93,-99.99,,,-99.99,,2013-07-02 11:52:00,
2013-07-02 08:01:00,63.0,61.0,29.89,ENE,65,0.0,-999.0,93,-99.99,,,-99.99,,2013-07-02 12:01:00,
2013-07-02 08:11:00,63.0,61.0,29.89,ENE,65,0.0,-999.0,93,-99.99,,,-99.99,,2013-07-02 12:11:00,
2013-07-02 08:23:00,64.0,62.0,29.89,ENE,65,0.0,-999.0,93,-99.99,,,-99.99,,2013-07-02 12:23:00,
2013-07-02 08:33:00,65.0,63.0,29.89,ENE,65,0.0,-999.0,92,-99.99,,,-99.99,,2013-07-02 12:33:00,
2013-07-02 08:43:00,65.0,63.0,29.89,ENE,65,0.0,-999.0,92,-99.99,,,-99.99,,2013-07-02 12:43:00,
2013-07-02 08:52:00,65.0,63.0,29.89,ENE,65,0.0,-999.0,92,-99.99,,,-99.99,,2013-07-02 12:52:00,
2013-07-02 09:01:00,65.0,63.0,29.89,ENE,65,0.0,-999.0,92,-99.99,,,-99.99,,2013-07-02 13:01:00,
2013-07-02 09:11:00,66.0,64.0,29.89,ENE,65,0.0,-999.0,92,-99.99,,,-99.99,,2013-07-02 13:11:00,
2013-07-02 09:22:00,66.0,63.0,29.90,ENE,61,0.0,-999.0,89,-99.99,,,-99.99,,2013-07-02 13:22:00,
2013-07-02 10:02:00,66.0,62.0,29.90,SW,219,0.0,-999.0,86,-99.99,,,-99.99,,2013-07-02 14:02:00,
2013-07-02 10:11:00,66.0,62.0,29.90,SW,219,0.0,-999.0,86,-99.99,,,-99.99,,2013-07-02 14:11:00,
2013-07-02 10:22:00,67.0,63.0,29.91,SW,219,0.0,-999.0,87,-99.99,,,-99.99,,2013-07-02 14:22:00,
2013-07-02 10:43:00,68.0,63.0,29.90,SW,219,0.0,-999.0,84,-99.99,,,-99.99,,2013-07-02 14:43:00,
2013-07-02 10:53:00,68.0,63.0,29.90,SW,219,0.0,-999.0,84,-99.99,,,-99.99,,2013-07-02 14:53:00,
2013-07-02 11:11:00,69.0,64.0,29.91,SW,229,0.0,-999.0,84,-99.99,,,-99.99,,2013-07-02 15:11:00,
2013-07-02 11:22:00,69.0,63.0,29.91,SW,219,0.0,-999.0,81,-99.99,,,-99.99,,2013-07-02 15:22:00,
2013-07-02 11:33:00,70.0,64.0,29.91,SSW,198,1.0,-999.0,81,-99.99,,,-99.99,,2013-07-02 15:33:00,
2013-07-02 11:53:00,70.0,64.0,29.91,SSW,203,0.0,-999.0,82,-99.99,,,-99.99,,2013-07-02 15:53:00,
2013-07-02 12:01:00,70.0,64.0,29.91,SSW,206,0.0,-999.0,81,-99.99,,,-99.99,,2013-07-02 16:01:00,
2013-07-02 12:12:00,70.0,64.0,29.91,SSW,206,0.0,-999.0,81,-99.99,,,-99.99,,2013-07-02 16:12:00,
2013-07-02 12:22:00,71.0,65.0,29.91,SSW,200,1.0,-999.0,81,-99.99,,,-99.99,,2013-07-02 16:22:00,
2013-07-02 12:43:00,71.0,65.0,29.92,SW,224,1.0,-999.0,81,-99.99,,,-99.99,,2013-07-02 16:43:00,
2013-07-02 13:02:00,71.0,65.0,29.92,SSW,206,1.0,-999.0,81,-99.99,,,-99.99,,2013-07-02 17:02:00,
2013-07-02 13:12:00,71.0,65.0,29.92,SSW,206,1.0,-999.0,81,-99.99,,,-99.99,,2013-07-02 17:12:00,
2013-07-02 13:22:00,72.0,65.0,29.91,SW,226,1.0,-999.0,78,-99.99,,,-99.99,,2013-07-02 17:22:00,
2013-07-02 13:33:00,72.0,65.0,29.91,SW,226,1.0,-999.0,78,-99.99,,,-99.99,,2013-07-02 17:33:00,
2013-07-02 13:43:00,75.0,66.0,29.91,West,261,1.0,-999.0,74,-99.99,,,-99.99,,2013-07-02 17:43:00,
2013-07-02 13:53:00,76.0,66.0,29.90,SSW,193,1.0,-999.0,72,-99.99,,,-99.99,,2013-07-02 17:53:00,
2013-07-02 14:02:00,76.0,65.0,29.90,South,189,1.0,-999.0,69,-99.99,,,-99.99,,2013-07-02 18:02:00,
2013-07-02 14:23:00,77.0,66.0,29.90,South,189,0.0,-999.0,69,-99.99,,,-99.99,,2013-07-02 18:23:00,
2013-07-02 14:34:00,77.0,65.0,29.90,SW,220,1.0,-999.0,67,-99.99,,,-99.99,,2013-07-02 18:34:00,
2013-07-02 14:53:00,78.0,67.0,29.90,SW,223,1.0,-999.0,68,-99.99,,,-99.99,,2013-07-02 18:53:00,
2013-07-02 15:22:00,78.0,65.0,29.89,SW,220,1.0,-999.0,64,-99.99,,,-99.99,,2013-07-02 19:22:00,
2013-07-02 15:34:00,79.0,65.0,29.89,SW,224,1.0,-999.0,63,-99.99,,,-99.99,,2013-07-02 19:34:00,
2013-07-02 15:53:00,80.0,65.0,29.89,South,179,1.0,-999.0,60,-99.99,,,-99.99,,2013-07-02 19:53:00,
2013-07-02 16:22:00,82.0,68.0,29.88,SW,222,1.0,-999.0,62,-99.99,,,-99.99,,2013-07-02 20:22:00,
2013-07-02 16:33:00,82.0,66.0,29.88,SW,227,1.0,-999.0,59,-99.99,,,-99.99,,2013-07-02 20:33:00,
2013-07-02 16:43:00,81.0,65.0,29.88,SSW,195,0.0,-999.0,59,-99.99,,,-99.99,,2013-07-02 20:43:00,
2013-07-02 16:52:00,81.0,65.0,29.88,SSW,195,0.0,-999.0,59,-99.99,,,-99.99,,2013-07-02 20:52:00,
2013-07-02 17:11:00,80.0,67.0,29.88,SSW,195,0.0,-999.0,65,-99.99,,,-99.99,,2013-07-02 21:11:00,
2013-07-02 17:22:00,81.0,66.0,29.88,West,261,2.0,-999.0,60,-99.99,,,-99.99,,2013-07-02 21:22:00,
2013-07-02 17:44:00,82.0,68.0,29.88,West,261,0.0,-999.0,62,-99.99,,,-99.99,,2013-07-02 21:44:00,
2013-07-02 17:52:00,82.0,68.0,29.88,West,261,0.0,-999.0,62,-99.99,,,-99.99,,2013-07-02 21:52:00,
2013-07-02 18:22:00,81.0,64.0,29.88,West,261,0.0,-999.0,56,-99.99,,,-99.99,,2013-07-02 22:22:00,
2013-07-02 18:34:00,82.0,65.0,29.88,West,261,0.0,-999.0,56,-99.99,,,-99.99,,2013-07-02 22:34:00,
2013-07-02 18:43:00,83.0,66.0,29.88,West,261,0.0,-999.0,57,-99.99,,,-99.99,,2013-07-02 22:43:00,
2013-07-02 18:53:00,83.0,66.0,29.88,West,261,0.0,-999.0,57,-99.99,,,-99.99,,2013-07-02 22:53:00,
2013-07-02 19:01:00,82.0,69.0,29.88,West,261,0.0,-999.0,64,-99.99,,,-99.99,,2013-07-02 23:01:00,
2013-07-02 19:12:00,80.0,69.0,29.88,West,261,0.0,-999.0,70,-99.99,,,-99.99,,2013-07-02 23:12:00,
2013-07-02 19:22:00,80.0,69.0,29.88,West,261,0.0,-999.0,70,-99.99,,,-99.99,,2013-07-02 23:22:00,
2013-07-02 19:33:00,78.0,69.0,29.89,West,261,0.0,-999.0,73,-99.99,,,-99.99,,2013-07-02 23:33:00,
2013-07-02 19:52:00,78.0,69.0,29.89,West,261,0.0,-999.0,73,-99.99,,,-99.99,,2013-07-02 23:52:00,
2013-07-02 20:01:00,78.0,69.0,29.89,West,261,0.0,-999.0,74,-99.99,,,-99.99,,2013-07-03 00:01:00,
2013-07-02 20:11:00,77.0,69.0,29.89,West,261,0.0,-999.0,76,-99.99,,,-99.99,,2013-07-03 00:11:00,
2013-07-02 20:22:00,77.0,69.0,29.89,West,261,0.0,-999.0,76,-99.99,,,-99.99,,2013-07-03 00:22:00,
2013-07-02 20:33:00,76.0,69.0,29.90,West,261,0.0,-999.0,78,-99.99,,,-99.99,,2013-07-03 00:33:00,
2013-07-02 20:44:00,76.0,69.0,29.90,West,261,0.0,-999.0,78,-99.99,,,-99.99,,2013-07-03 00:44:00,
2013-07-02 20:52:00,75.0,68.0,29.90,West,261,0.0,-999.0,79,-99.99,,,-99.99,,2013-07-03 00:52:00,
2013-07-02 21:01:00,75.0,68.0,29.90,West,261,0.0,-999.0,79,-99.99,,,-99.99,,2013-07-03 01:01:00,
2013-07-02 21:11:00,75.0,68.0,29.90,West,261,0.0,-999.0,80,-99.99,,,-99.99,,2013-07-03 01:11:00,
2013-07-02 21:22:00,74.0,68.0,29.90,West,261,0.0,-999.0,82,-99.99,,,-99.99,,2013-07-03 01:22:00,
2013-07-02 21:33:00,74.0,68.0,29.90,West,261,0.0,-999.0,82,-99.99,,,-99.99,,2013-07-03 01:33:00,
2013-07-02 21:42:00,73.0,68.0,29.91,West,261,0.0,-999.0,84,-99.99,,,-99.99,,2013-07-03 01:42:00,
2013-07-02 21:56:00,73.0,68.0,29.91,West,261,0.0,-999.0,84,-99.99,,,-99.99,,2013-07-03 01:56:00,
2013-07-02 22:14:00,72.0,68.0,29.91,West,261,0.0,-999.0,86,-99.99,,,-99.99,,2013-07-03 02:14:00,
2013-07-02 22:27:00,72.0,68.0,29.91,West,261,0.0,-999.0,86,-99.99,,,-99.99,,2013-07-03 02:27:00,
2013-07-02 22:39:00,71.0,67.0,29.92,West,261,0.0,-999.0,88,-99.99,,,-99.99,,2013-07-03 02:39:00,
2013-07-02 22:44:00,71.0,67.0,29.92,West,261,0.0,-999.0,88,-99.99,,,-99.99,,2013-07-03 02:44:00,
2013-07-02 22:59:00,71.0,68.0,29.93,West,261,0.0,-999.0,89,-99.99,,,-99.99,,2013-07-03 02:59:00,
2013-07-02 23:06:00,71.0,68.0,29.93,West,261,0.0,-999.0,89,-99.99,,,-99.99,,2013-07-03 03:06:00,
2013-07-02 23:13:00,70.0,67.0,29.93,West,261,0.0,-999.0,89,-99.99,,,-99.99,,2013-07-03 03:13:00,
2013-07-02 23:25:00,70.0,67.0,29.93,West,261,0.0,-999.0,89,-99.99,,,-99.99,,2013-07-03 03:25:00,
2013-07-02 23:36:00,70.0,67.0,29.93,West,261,0.0,-999.0,89,-99.99,,,-99.99,,2013-07-03 03:36:00,
2013-07-02 23:48:00,69.0,66.0,29.93,West,261,0.0,-999.0,89,-99.99,,,-99.99,,2013-07-03 03:48:00,
2013-07-02 23:56:00,69.0,66.0,29.93,West,261,0.0,-999.0,90,-99.99,,,-99.99,,2013-07-03 03:56:00,